Terug naar catalogus

STARLINK-35414

ActiefCommunicatieSSO
NORAD 65798·PAYLOAD·🇺🇸 United States

Gelanceerd Sep 26, 2025 vanaf Vandenberg Space Force Base

Loading…

Volgende Passages (komende 24 uur)

TLE

VersSource: CelesTrak SupGP

Epoch: Sep 15, 2026, 02:37 UTC

1 65798C 25218H   26258.10951389  .00008624  00000+0  26768-3 0  2581
2 65798  97.2843 115.6209 0001770  99.4191 191.8261 15.33439129    11

Volg STARLINK-35414 in realtime met AllMySat

Download on the App Store